Location: ???????
(55.4362°N, 38.1183°E)
Time: 02:24:46
(UTC+00:00)

MINOTAUR 4 R/B - Pass Details

Date: 17 June 2021
Orbit: 475 x 481 km, 98.0° (Epoch: 26 July)

Event Time Altitude Azimuth Distance (km) Brightness Sun altitude
Exits shadow 23:10:43 - 156° (SSE) 2,326 7.1 -8.2°
Reaches altitude 10° 23:12:19 10° 155° (SSE) 1,646 6.4 -8.1°
Maximum altitude 23:15:49 69° 71° (ENE) 516 4.3 -7.9°
Drops below altitude 10° 23:19:22 10° 349° (NNW) 1,660 7.7 -7.7°
Sets 23:21:26 0° 347° (NNW) 2,544 8.6 -7.6°
